Location: Dresden
(51.0483°N, 13.7137°E)
Time: 22:01:12
(UTC+01:00)

ISS - Pass Details

Date: 11 January 2018
Orbit: 401 x 407 km, 51.6° (Epoch: 17 January)

Event Time Altitude Azimuth Distance (km) Brightness Sun altitude
Exits shadow 05:42:11 53° 146° (SSE) 508 -3.2 -21.5°
Drops below altitude 10° 05:44:53 10° 117° (ESE) 1,464 0.0 -21.1°
Sets 05:46:59 0° 114° (ESE) 2,323 1.4 -20.8°
